sat.trackr.live / text

‹ back to catalog

STARLINK-3880

NORAD 52334 · 2022-045D

PAYLOAD ACTIVE UNKNOWN

§ Identity

Operator
Country
US
Launch date
2022-04-29
Launch site
AFETR
Launch vehicle
Mass (kg)
RCS (m²)

Purposes: comms

External: N2YO · Heavens-Above · Gunter

§ Orbital elements

Epoch: 2026-05-25T05:13:00.698016Z

Period
95.44 min
Inclination
53.2125°
Eccentricity
0.0001128
Mean motion
15.08838463 rev/d
Perigee alt
539.0 km
Apogee alt
540.5 km
Semi-major
6,917.9 km
B*
-7.7737e-6
RAAN
225.5737°
Arg perigee
98.0177°
Mean anomaly
262.0943°
Rev number
22,718

§ Raw data

STARLINK-38801 52334U 22045D   26145.21736919 -.00000412  00000+0 -77737-5 0  99902 52334  53.2125 225.5737 0001128  98.0177 262.0943 15.08838463227184

JSON: /api/v1/satellites/52334 · /tle

For live sub-satellite position, see the globe view (requires WebGL).

§ Visibility from observer

Set your observer location to see the next 7 days of passes ≥ 10°. The values pass through the URL so the page stays shareable.

No JS? Fill the form by hand. The geolocation button needs JavaScript.